Theta_e
313 315 319 315 315 313 314 317 319 318 314 317 318 318 318 319 318 317 315 315 314 313 310 308 307 308 309 310 309 308 307 307 307 308 309 310 311 311 310 308 307 307 307 306
314 314 314 314 313 315 315 316 317 316 314 316 318 319 319 316 314 313 313 313 312 313 312 308 307 307 308 308 308 307 307 307 308 308 308 310 311 310 309 307 307 306 307 306
313 312 312 313 313 314 315 315 316 315 315 314 316 325 321 314 313 312 310 311 310 311 310 308 306 306 307 307 307 307 307 307 307 306 308 309 310 310 310 309 307 307 307 307
312 310 311 312 313 313 314 313 313 314 318 326 316 340 326 316 315 311 308 309 310 309 308 307 306 306 306 306 307 307 307 307 306 307 309 310 312 311 310 309 308 308 307 308
312 313 312 312 312 311 314 312 314 316 319 319 319 328 327 314 316 309 307 307 307 308 306 305 304 304 305 306 307 307 307 306 306 308 309 310 311 310 309 308 308 308 308 308
309 307 312 313 310 311 311 314 313 314 317 326 318 321 329 313 307 307 306 305 304 305 306 304 303 304 305 306 307 307 307 306 306 308 308 309 310 309 309 310 309 310 310 310
310 310 309 309 313 311 312 316 324 325 326 326 311 316 319 306 305 304 303 303 302 302 303 304 304 305 306 306 306 306 306 306 306 307 307 308 309 309 308 310 310 311 311 312
307 305 311 310 314 316 314 317 323 326 320 317 312 317 314 304 302 301 301 300 300 299 300 301 302 303 304 304 305 306 306 306 305 306 307 307 308 309 310 310 310 311 312 313
308 309 308 308 309 312 315 317 311 312 307 314 314 312 305 305 303 301 300 299 298 297 298 297 297 297 299 300 302 303 304 305 305 305 306 306 307 307 309 309 310 311 311 312
312 313 308 308 308 308 312 311 315 315 318 315 309 310 312 307 304 300 299 298 296 296 295 295 294 294 294 294 295 297 298 301 302 303 304 305 306 306 307 308 309 310 311 312
313 315 310 309 311 312 311 313 311 313 311 310 310 310 305 304 301 300 298 296 295 295 294 293 293 292 291 292 292 293 294 295 296 298 302 304 305 305 306 307 308 309 311 311
315 317 315 311 307 307 308 312 311 312 312 310 311 311 301 300 298 297 296 295 294 293 293 292 292 291 291 290 290 290 291 292 293 295 297 301 303 304 305 306 307 308 309 311
315 315 321 318 314 310 310 310 309 309 310 312 313 311 300 298 297 296 296 294 293 292 292 292 291 290 290 289 289 289 289 289 290 294 296 298 300 302 303 304 305 306 307 308
312 314 316 320 316 313 311 309 309 311 315 312 312 309 303 301 299 296 295 294 293 292 291 291 290 289 289 288 288 288 288 288 288 289 290 291 292 294 299 301 302 304 305 306
309 314 313 314 312 312 311 310 309 311 312 313 312 310 306 301 298 295 294 293 292 292 291 290 289 288 288 287 287 287 287 287 287 287 287 287 288 289 290 292 295 299 301 303
306 311 310 310 310 310 312 311 311 311 311 311 309 304 299 297 296 295 294 293 292 291 290 289 288 287 287 286 285 285 286 285 286 286 286 286 286 287 287 288 290 293 296 299
305 310 311 313 307 311 314 305 305 304 301 303 312 302 297 297 295 294 293 292 291 289 288 287 286 285 285 283 282 284 284 284 284 284 284 284 285 286 286 286 287 289 290 292
301 304 306 310 304 313 303 298 300 300 298 298 298 297 297 296 294 292 291 290 289 287 286 285 283 283 282 281 280 282 282 281 281 281 281 281 283 284 284 286 286 287 287 288
297 302 303 307 307 303 302 298 300 302 299 295 295 294 294 294 293 291 290 288 287 285 284 282 281 281 280 279 279 280 280 279 279 278 279 279 280 281 283 284 284 285 286 287
298 299 301 303 305 306 299 295 294 295 304 293 293 292 295 294 297 294 288 286 285 283 282 281 280 280 279 278 278 279 278 278 277 277 277 278 278 279 280 281 282 282 284 285
298 299 300 301 304 300 294 294 294 303 300 292 291 291 290 294 291 289 285 284 283 281 281 279 279 279 278 277 277 277 277 276 276 275 276 277 277 278 279 279 280 280 281 283
296 297 298 295 300 302 292 294 299 294 292 291 291 290 290 289 287 286 284 284 282 280 280 278 277 277 277 276 276 276 276 275 275 274 274 275 275 276 278 277 279 279 280 281
294 293 297 296 298 290 291 292 290 291 291 291 290 289 288 288 286 284 284 283 281 280 279 277 276 276 276 275 274 274 274 273 272 272 272 273 274 275 276 276 277 278 279 280
286 285 290 289 287 289 290 289 290 290 290 290 289 288 287 286 284 283 283 282 280 278 277 275 275 275 275 274 273 272 271 270 269 269 270 271 272 273 273 274 275 276 277 278
286 287 287 287 285 288 288 289 290 290 289 288 286 286 286 284 284 282 282 280 279 277 275 274 273 273 273 272 271 270 268 268 268 268 269 270 271 271 271 272 273 274 275 276
285 286 287 288 287 288 288 291 290 290 289 288 286 283 282 282 282 280 280 278 276 275 273 272 272 271 270 269 268 268 267 266 266 266 268 268 268 269 270 271 272 272 273 274
Wind_Speed
3 7 13 12 8 1 3 1 1 2 1 3 4 12 15 16 10 11 12 11 10 10 8 11 8 3 8 12 16 17 17 15 11 6 3 2 2 0 2 2 2 2 3 4
5 13 8 6 7 8 3 2 2 1 2 3 7 17 11 7 8 13 15 14 14 13 12 11 9 6 6 11 13 14 14 13 8 4 3 1 2 1 2 2 2 3 3 4
8 1 12 9 9 10 10 9 4 3 3 1 8 6 3 5 9 13 16 15 15 15 14 11 10 7 9 12 13 13 12 9 5 3 2 2 1 1 1 1 1 1 3 4
4 4 11 11 7 10 9 8 6 3 2 3 4 4 5 3 7 16 18 17 16 17 15 11 9 8 9 11 12 12 10 8 5 2 1 1 2 1 1 2 1 1 4 4
4 6 10 6 6 8 1 4 6 3 3 2 1 2 2 4 4 16 18 17 17 16 14 11 10 9 10 10 10 9 8 6 3 1 1 1 2 1 1 1 2 2 4 5
3 2 1 2 3 7 10 6 5 3 1 3 2 3 0 4 6 9 14 15 17 17 16 13 10 9 11 9 8 7 6 4 2 1 1 1 2 1 1 2 3 2 3 4
1 1 0 2 6 4 2 7 3 3 3 3 2 3 3 4 6 8 12 13 15 16 16 14 12 11 10 9 7 6 5 5 4 3 2 2 2 3 2 2 2 3 4 4
9 5 8 5 2 6 8 3 3 5 4 3 2 5 1 7 6 7 9 11 13 16 15 15 17 15 14 13 11 10 9 7 6 6 5 5 4 3 3 3 3 3 3 4
7 3 2 0 2 3 6 6 2 6 2 1 3 3 6 7 10 11 12 14 15 15 15 15 19 18 17 17 15 14 12 10 8 8 7 7 6 5 4 4 4 5 5 6
2 4 0 1 2 2 4 7 3 1 5 5 3 3 1 6 7 10 13 14 13 13 14 14 18 19 18 17 16 15 14 13 12 10 8 7 8 8 6 6 6 7 9 8
2 0 2 2 7 9 4 4 1 1 1 3 4 2 5 4 5 7 10 11 12 13 13 12 17 18 18 18 19 17 17 16 15 14 11 8 9 9 8 8 7 8 9 8
3 2 4 3 1 1 1 3 6 4 4 1 2 2 3 6 6 6 8 9 10 12 12 14 18 19 21 21 21 20 20 19 18 16 14 10 9 10 10 9 9 9 9 10
7 3 4 2 2 1 4 4 2 3 2 6 4 2 5 6 6 6 7 8 9 11 13 13 17 19 20 21 21 21 22 22 21 18 16 14 12 11 11 11 10 10 10 11
4 2 2 4 3 2 4 4 5 8 4 5 8 6 10 6 6 5 6 7 8 10 11 12 14 18 20 21 21 21 22 23 22 21 20 19 19 17 14 13 12 11 11 13
3 2 2 3 3 3 2 2 2 10 10 7 3 3 11 7 6 5 5 5 7 9 11 11 11 15 17 19 20 20 20 22 22 21 22 22 20 19 18 17 15 13 12 13
3 2 1 2 4 2 2 1 2 0 2 3 4 4 5 7 7 5 5 6 8 8 9 10 13 15 16 18 18 18 19 20 19 20 21 21 22 21 21 21 20 17 15 13
2 1 1 2 3 3 3 1 1 3 4 3 4 4 8 6 6 5 6 6 7 9 10 12 14 15 16 17 18 18 18 18 18 19 20 21 22 23 24 22 21 20 19 18
2 2 2 2 1 3 3 2 1 7 5 6 8 7 5 7 8 7 6 5 5 6 7 9 11 12 14 16 16 15 16 17 19 20 21 22 22 22 23 22 23 22 21 20
5 2 3 2 1 2 3 3 2 2 3 1 5 5 4 10 9 6 5 5 5 5 6 7 8 9 11 15 16 16 17 18 20 23 23 24 23 22 22 23 24 23 22 22
2 3 1 3 3 6 3 3 2 1 3 6 5 5 5 11 3 3 3 3 3 4 4 6 7 7 10 13 13 13 15 18 21 22 22 21 22 21 21 22 23 23 21 22
3 1 3 5 4 2 2 5 4 3 2 8 5 5 4 4 2 5 3 2 2 2 3 5 6 6 8 11 13 13 14 16 17 19 20 20 20 21 19 22 22 25 24 23
5 6 4 3 3 6 6 5 4 4 7 8 6 5 5 5 4 3 1 1 1 2 2 4 6 6 8 11 13 14 14 17 18 21 22 24 24 22 20 23 24 25 21 20
3 2 0 5 0 1 2 1 2 5 7 6 7 5 4 4 3 1 1 2 2 1 1 3 6 7 8 9 12 15 17 19 21 29 31 29 28 24 21 22 24 23 21 19
3 4 2 1 4 5 4 3 4 5 6 7 5 7 6 4 3 2 3 3 2 1 3 5 8 9 11 12 14 16 19 20 26 24 24 24 24 25 24 23 21 21 21 20
1 7 4 4 4 2 6 9 10 9 7 6 6 6 6 6 5 4 4 5 5 4 4 6 8 10 13 14 16 17 19 23 24 23 22 22 21 23 26 23 23 23 23 22
7 7 6 5 6 3 2 14 11 9 10 9 8 5 6 7 5 4 5 5 5 4 5 8 10 12 15 17 20 23 24 22 22 21 19 20 22 23 23 24 28 23 24 27
Wind_Direction
106 191 206 192 199 315 126 209 203 120 51 277 267 290 289 299 349 5 1 350 358 11 360 1 13 82 148 160 162 161 158 158 166 166 187 210 198 114 24 21 44 72 93 117
148 222 195 174 184 217 162 145 270 299 348 310 315 296 297 23 61 50 28 22 11 4 8 16 27 68 114 138 142 148 150 154 160 167 188 188 165 119 86 53 83 104 116 128
171 146 171 163 185 205 225 229 190 247 306 154 303 282 31 74 99 45 32 24 18 12 1 9 27 56 106 120 132 136 139 143 155 180 161 134 125 81 79 65 98 113 138 141
225 131 157 179 183 198 230 218 187 220 226 275 337 290 311 18 120 31 16 16 13 9 9 17 29 60 91 108 120 125 131 136 144 155 148 274 299 2 110 125 137 146 153 151
169 163 150 177 208 184 193 144 141 125 164 298 194 250 228 18 3 5 6 6 9 8 9 14 38 62 80 96 106 109 112 110 114 126 149 316 319 74 124 151 154 179 174 172
85 355 169 107 65 186 141 100 73 78 156 235 150 240 284 11 337 338 356 7 8 8 12 23 40 75 88 86 83 85 86 84 78 21 6 354 300 279 216 187 166 196 202 203
139 135 308 159 106 85 248 167 142 184 193 240 33 222 2 77 21 1 356 7 13 15 21 23 35 44 53 56 60 60 57 44 14 354 340 316 318 293 262 247 207 200 220 227
168 189 187 171 197 191 196 241 216 207 194 154 124 227 132 95 63 38 29 27 28 24 24 30 31 32 31 26 22 20 17 21 7 347 336 315 294 299 282 275 268 257 244 251
170 138 47 350 137 183 171 217 64 108 62 279 188 130 144 136 52 35 31 34 28 27 26 28 27 29 29 25 18 10 4 2 357 354 342 330 312 302 298 288 276 258 255 262
142 123 78 85 160 74 248 150 149 261 173 211 198 248 136 191 24 26 28 27 24 27 29 28 27 25 25 25 21 18 14 4 350 350 345 336 316 302 295 287 270 262 261 263
162 37 106 170 208 179 156 193 111 190 246 189 171 157 10 85 59 44 38 31 26 26 28 29 29 27 26 24 24 17 15 8 1 349 341 339 322 310 300 289 284 271 270 260
160 52 162 186 35 348 6 218 190 198 188 269 335 149 103 100 80 59 51 39 32 33 33 31 31 29 28 27 21 17 13 11 1 349 341 337 330 322 311 300 292 284 276 268
161 180 143 162 219 131 216 191 182 88 88 194 180 154 150 124 90 69 62 47 38 33 29 30 30 30 26 23 18 18 14 13 6 8 4 3 357 342 327 317 304 292 284 278
77 153 264 236 68 75 168 196 205 216 225 231 239 146 188 166 114 77 63 54 45 38 31 25 23 21 23 19 14 14 14 15 11 14 15 11 5 357 345 330 321 309 295 283
69 104 133 75 100 63 74 74 204 223 241 238 166 99 164 153 124 91 64 48 39 32 26 22 17 14 16 13 10 9 11 12 11 17 17 11 4 2 355 348 339 325 311 297
1 103 112 74 59 76 142 48 226 295 347 278 151 111 133 121 117 97 62 45 41 33 26 18 14 11 11 7 2 2 4 6 7 13 15 10 6 5 2 355 348 342 334 320
32 96 67 108 20 143 201 24 330 103 50 341 225 87 152 142 117 93 87 65 41 18 7 7 7 7 6 3 357 358 359 2 9 8 9 8 5 3 0 357 354 351 344 336
80 81 53 120 18 226 80 40 37 106 77 91 98 104 102 121 111 100 72 65 52 23 11 5 1 6 9 4 5 1 4 5 8 10 8 7 3 359 356 353 353 350 348 342
34 62 99 154 192 3 198 195 177 194 139 127 127 118 115 138 132 99 67 59 46 26 16 10 6 8 7 6 3 4 7 8 10 8 4 1 358 355 354 349 345 344 341 342
71 42 75 173 188 218 86 143 125 148 224 166 148 115 105 155 203 113 82 65 49 41 34 19 11 13 13 7 5 7 6 4 3 358 353 352 351 350 349 345 339 340 337 333
111 140 194 186 229 290 134 136 151 183 128 159 152 131 127 181 51 115 126 112 78 63 46 20 15 15 8 2 2 3 359 359 348 344 342 341 343 341 338 335 337 336 338 335
182 160 180 141 206 243 155 128 206 113 128 148 148 151 142 145 158 156 151 136 123 75 39 17 6 0 355 356 356 350 348 341 337 336 333 331 333 332 328 330 328 331 332 331
221 239 195 219 187 141 186 258 143 155 150 165 168 168 169 171 182 217 222 193 179 131 359 353 346 335 337 342 346 335 332 332 328 328 327 326 324 323 322 323 321 321 324 323
216 190 228 265 189 220 207 186 174 173 153 158 161 167 178 188 192 237 233 223 244 292 321 331 332 329 327 332 334 330 329 327 324 323 320 321 320 319 320 317 315 311 310 313
207 160 182 258 231 258 233 213 189 180 161 157 155 180 194 193 213 221 223 224 233 258 290 317 317 312 312 321 323 323 328 327 325 322 320 320 319 317 316 312 309 305 299 299
191 182 185 212 185 181 188 194 192 189 196 190 179 186 201 209 231 226 240 232 238 266 303 312 311 312 318 322 320 324 331 328 323 319 319 317 317 316 314 312 310 303 298 300